Гребени

Россия / Оренбургская область     51°56′30″N   55°16′45″E
темп.,
°C
ветер,
м/с
пор.,
м/с
влажн.,
%
обл.,
%
осадки,
мм/ч
давл.,
гПа
погр.,
м
11 мая, вт
вт1123:00+17в495144 0.0 1020150
02:00+14вюв411617 0.0 1021221
05:00+12вюв310779 0.0 1023214
08:00+15вюв58655 0.0 1025359
11:00+20юв5745100 0.0 10251180
14:00+22юв5638100 0.0 10261999
17:00+23вюв453585 0.0 10262236
20:00+20юв334988 0.0 102650
12 мая, ср
ср1223:00+16в335490 0.0 102623
02:00+14в336168 0.0 102728
05:00+13в355899 0.0 102865
08:00+15юв365165 0.0 1029244
11:00+20юв5737100 0.0 10291057
14:00+22вюв5631100 0.0 10281568
17:00+23вюв563146 0.0 10271723
20:00+19в364898 0.0 1027119
13 мая, чт
чт1323:00+16в345081 0.0 102859
02:00+14в3551100 0.0 102874
05:00+13в335486 0.0 102838
08:00+16вюв35515 0.0 1028186
11:00+23юв45345 0.0 1028855
14:00+25юв34275 0.0 10271814
17:00+26юв34250 0.0 10271926
20:00+22вюв33400 0.0 102629
14 мая, пт
пт1423:00+18вюв33482 0.0 102732
02:00+16вюв224978 0.0 102717
05:00+15вюв2252100 0.0 102711
08:00+18вюв23485 0.0 1028143
11:00+24ююв343487 0.0 1028692
14:00+27ю3324100 0.0 10272202
17:00+28ю2222100 0.0 10262356
20:00+24всв0134100 0.0 102511
15 мая, сб
сб1523:00+19в224360 0.0 102511
02:00+17юв12453 0.0 102511
05:00+16вюв22490 0.0 102511
08:00+20вюв23450 0.0 1026140
11:00+26юв34340 0.0 1025703
14:00+29ююв33260 0.0 10232679
17:00+29ююв23255 0.0 10222965
20:00+26в013731 0.0 102112